map of PHS home
PHS - Airport
Location
City:  Phitsanulok, Phitsanulok, Thailand
ICAO:VTPP
IATA:PHS

Details
Type:Airport (Aerodrome, Airfield)
Use:Public/Civil
Latitude:1646'59"N (16.782939)
Longitude:10016'45"E (100.279122)
Datum:WGS 1984
Elevation:154 ft (47 m)
Variation:0.72W (WMM2015 magnetic declination)
0.01 annual change
Runways:1
Longest:9843 × 148 ft (3000 × 45 m), paved

Time
Time Zone:UTC+7
Local Time:

Weather
METAR:VTPP 171200Z VRB02KT 9999 TS FEW015CB SCT020 BKN100 29/24 Q1003
TAF:VTPP 171100Z 1712/1812 27005KT 9999 SCT030
TEMPO 1712/1716 VRB15G25KT 4000 TSRA FEW020CB BKN030

Related Locations
Nearby:
Farthest:SJA: 12127 mi / 19516 km
San Juan de Marcona [San Juan de Marcona Airport], ICA, PE

Find:

   beyond  
but within

Other Information
Maps:
NOTAMs:
Links:
Sources:

  
flag of Thailand   

Sectional Chart

Flight Planning
at skyvector.com

Satellite Image

Google Maps Satellite view

 

Copyright © 2004-2017 Karl L. Swartz. All rights reserved.
The Great Circle Mapper name and logo are trademarks of the Great Circle Mapper.
All other trademarks mentioned herein belong to their respective owners.
Please see credits for attibutions and further copyright information.

  Follow gcmap on Facebook Follow gcmap on Twitter Follow gcmap on Google+ GCmap on LinkedIn

hCard Microformat

Geo Microformat